Regional Weather Roundup
Issued by NWS

Home | Current Version | Previous Version | Graphics & Text | Print | Product List | Glossary On
Versions: 1 2 3 4 5 6 7 8 9 10 11 12 13 14 15 16 17 18 19 20 21 22 23 24 25 26 27
000
ASUS45 KSLC 231410
RWRUT

UTAH REGIONAL WEATHER ROUNDUP
NATIONAL WEATHER SERVICE SALT LAKE CITY UT
800 AM MDT SAT SEP 23 2017

UTZ001>011-023>025-231500-

NORTHERN UTAH

CITY           SKY/WX    TMP DP  RH WIND       PRES   REMARKS
BRIGHAM CITY   CLEAR     35  32  88 CALM      29.97S
HILL AFB       CLEAR     39  32  76 E9        29.95S WCI  33
LOGAN          CLOUDY    36  34  92 SW3       30.00S
OGDEN          CLEAR     38  35  89 CALM      29.95S
SALT LAKE CITY PTCLDY    41  39  93 N5        29.95S
TOOELE VALLEY  CLOUDY    41  37  87 CALM      29.97R
WENDOVER       PTCLDY    41  34  76 VRB3      29.99S
HEBER CITY     CLOUDY    37  34  87 CALM      29.95S
WEST JORDAN    PTCLDY    38  38 100 NW13      29.96S WCI  30

$$

UTZ011>015-024>027-231500-

CENTRAL/NORTHEAST UTAH

CITY           SKY/WX    TMP DP  RH WIND       PRES   REMARKS
PROVO AIRPORT  PTCLDY    39  37  92 CALM      29.95S
MOAB/CANYONLAN CLEAR     47  28  47 NW7       29.81R
DELTA          PTCLDY    36  34  93 N3        29.95R
PRICE          CLEAR     46  25  43 VRB3      29.86R
RICHFIELD      CLOUDY    41  39  93 N5        29.95
ROOSEVELT      CLOUDY    45  36  70 SW5       29.94R
VERNAL         CLOUDY    48  34  58 NE6       29.91S

$$

UTZ013>016-019>022-027-231500-

SOUTHERN UTAH

CITY           SKY/WX    TMP DP  RH WIND       PRES   REMARKS
BRYCE CANYON   CLOUDY    31  29  92 N7        29.93S WCI  24
CEDAR CITY     CLOUDY    37  36  96 NE5       29.93R WCI  33
MILFORD        CLOUDY    40  37  89 N8        29.94R WCI  34
ST GEORGE      MOSUNNY   51  36  56 S7        29.85R
HANKSVILLE     CLEAR     41  32  70 CALM      29.85R
KANAB          CLEAR     36  25  64 E5        29.90R WCI  32
BLANDING         N/A     51  46  86 E6        29.95R

$$

REGIONAL REPORTS     COLORADO/ARIZONA

CITY           SKY/WX    TMP DP  RH WIND       PRES   REMARKS
CRAIG, CO      CLOUDY    44  40  85 E10       29.94F
GRAND JUNCTION CLOUDY    54  45  71 E18       29.84F
RIFLE, CO      HVY RAIN  50  49  96 W3        29.95R FOG
MONTROSE, CO   LGT RAIN  48  48 100 W3        29.96R
CORTEZ, CO     RAIN      49  49 100 CALM      29.94R FOG
PAGE, AZ       CLEAR     52  22  30 CALM      29.81R
GRAND CANYON   PTCLDY    27  16  63 CALM      29.90R
KINGMAN, AZ    CLEAR     46  29  51 E8        29.81R
FLAGSTAFF, AZ  CLEAR     34  27  75 CALM      29.90S

$$

REGIONAL REPORTS    NEVADA/IDAHO/WYOMING

CITY           SKY/WX    TMP DP  RH WIND       PRES   REMARKS
LAS VEGAS, NV  PTCLDY    60  29  30 VRB5      29.81R
ELY, NY        CLOUDY    30  30 100 N9        29.99S WCI  22
ELKO, NV       FOG       31  30  96 SE3       30.03R VSB 1/4
POCATELLO, ID  MOCLDY    35  34  96 CALM      30.04R
BURLEY, ID     CLOUDY    35  33  92 CALM      30.03R
FORT BRIDGER,  FOG       35  35 100 NE6       30.00S VSB 1/2 WCI  30
EVANSTON, WY   CLOUDY    31  30  96 N9        29.97S WCI  23
ROCK SPRINGS,  CLOUDY    36  34  92 E3        29.99R

$$




USA.gov is the U.S. government's official web portal to all federal, state and local government web resources and services.